Time,TemperatureF,DewpointF,PressureIn,WindDirection,WindDirectionDegrees,WindSpeedMPH,WindSpeedGustMPH,Humidity,HourlyPrecipIn,Conditions,Clouds,dailyrainin,SoftwareType,DateUTC
2013-05-11 00:00:00,69.3,32.0,30.87,WSW,241,2.0,6.0,10,0.00,MI,SKC,0.00,Misterhouse,2013-05-11 07:00:00,
2013-05-11 00:05:00,69.1,32.0,30.87,West,262,0.0,0.0,10,0.00,MI,SKC,0.00,Misterhouse,2013-05-11 07:05:00,
2013-05-11 00:10:00,68.7,32.0,30.87,WSW,257,0.0,0.0,10,0.00,MI,SKC,0.00,Misterhouse,2013-05-11 07:10:00,
2013-05-11 00:15:00,68.5,32.0,30.87,South,183,0.0,0.0,10,0.00,MI,SKC,0.00,Misterhouse,2013-05-11 07:15:00,
2013-05-11 00:20:00,68.0,32.0,30.87,South,180,0.0,0.0,10,0.00,MI,SKC,0.00,Misterhouse,2013-05-11 07:20:00,
2013-05-11 00:25:00,67.8,32.0,30.87,South,180,0.0,0.0,10,0.00,MI,SKC,0.00,Misterhouse,2013-05-11 07:25:00,
2013-05-11 00:30:00,67.6,32.0,30.87,South,180,0.0,0.0,10,0.00,MI,SKC,0.00,Misterhouse,2013-05-11 07:30:00,
2013-05-11 00:35:00,67.3,32.0,30.87,South,180,0.0,0.0,10,0.00,MI,SKC,0.00,Misterhouse,2013-05-11 07:35:00,
2013-05-11 00:40:00,66.7,32.0,30.84,South,180,0.0,0.0,10,0.00,MI,SKC,0.00,Misterhouse,2013-05-11 07:40:00,
2013-05-11 00:45:00,66.2,32.0,30.84,South,180,0.0,0.0,10,0.00,MI,SKC,0.00,Misterhouse,2013-05-11 07:45:00,
2013-05-11 00:50:00,65.8,32.0,30.84,South,180,0.0,0.0,10,0.00,MI,SKC,0.00,Misterhouse,2013-05-11 07:50:00,
2013-05-11 00:55:00,66.0,32.0,30.87,South,180,0.0,0.0,10,0.00,MI,SKC,0.00,Misterhouse,2013-05-11 07:55:00,
2013-05-11 01:00:00,66.0,32.0,30.87,South,180,0.0,0.0,13,0.00,MI,SKC,0.00,Misterhouse,2013-05-11 08:00:00,
2013-05-11 01:05:00,66.0,32.0,30.87,SE,137,0.0,0.0,13,0.00,MI,SKC,0.00,Misterhouse,2013-05-11 08:05:00,
2013-05-11 01:10:00,66.2,32.0,30.87,SE,137,0.0,0.0,12,0.00,MI,SKC,0.00,Misterhouse,2013-05-11 08:10:00,
2013-05-11 01:15:00,66.0,32.0,30.87,SE,137,0.0,0.0,13,0.00,MI,SKC,0.00,Misterhouse,2013-05-11 08:15:00,
2013-05-11 01:20:00,66.2,32.0,30.87,SE,137,0.0,0.0,12,0.00,MI,SKC,0.00,Misterhouse,2013-05-11 08:20:00,
2013-05-11 01:25:00,66.0,32.0,30.87,SE,137,0.0,0.0,13,0.00,MI,SKC,0.00,Misterhouse,2013-05-11 08:25:00,
2013-05-11 01:30:00,65.7,32.0,30.87,SE,137,0.0,0.0,13,0.00,MI,SKC,0.00,Misterhouse,2013-05-11 08:30:00,
2013-05-11 01:35:00,65.5,32.0,30.87,ESE,114,0.0,0.0,13,0.00,MI,SKC,0.00,Misterhouse,2013-05-11 08:35:00,
2013-05-11 01:40:00,65.7,32.0,30.87,ENE,78,0.0,0.0,13,0.00,MI,SKC,0.00,Misterhouse,2013-05-11 08:40:00,
2013-05-11 01:45:00,65.7,32.0,30.87,ENE,78,0.0,0.0,13,0.00,MI,SKC,0.00,Misterhouse,2013-05-11 08:45:00,
2013-05-11 01:50:00,65.7,32.0,30.87,ENE,78,0.0,0.0,13,0.00,MI,SKC,0.00,Misterhouse,2013-05-11 08:50:00,
2013-05-11 01:55:00,65.7,32.0,30.87,ENE,78,0.0,0.0,13,0.00,MI,SKC,0.00,Misterhouse,2013-05-11 08:55:00,
2013-05-11 02:00:00,66.0,32.0,30.87,ENE,78,0.0,0.0,13,0.00,MI,SKC,0.00,Misterhouse,2013-05-11 09:00:00,
2013-05-11 02:05:00,66.2,32.0,30.87,ENE,78,0.0,0.0,12,0.00,MI,SKC,0.00,Misterhouse,2013-05-11 09:05:00,
2013-05-11 02:10:00,66.4,32.0,30.87,ENE,78,0.0,0.0,12,0.00,MI,SKC,0.00,Misterhouse,2013-05-11 09:10:00,
2013-05-11 02:15:00,66.0,32.0,30.87,ENE,78,0.0,0.0,13,0.00,MI,SKC,0.00,Misterhouse,2013-05-11 09:15:00,
2013-05-11 02:20:00,66.0,32.0,30.87,ENE,78,0.0,0.0,13,0.00,MI,SKC,0.00,Misterhouse,2013-05-11 09:20:00,
2013-05-11 02:25:00,66.2,32.0,30.87,ENE,78,0.0,0.0,12,0.00,MI,SKC,0.00,Misterhouse,2013-05-11 09:25:00,
2013-05-11 02:30:00,66.4,32.0,30.87,ENE,78,0.0,0.0,12,0.00,MI,SKC,0.00,Misterhouse,2013-05-11 09:30:00,
2013-05-11 02:35:00,66.4,32.0,30.87,ENE,78,0.0,0.0,12,0.00,MI,SKC,0.00,Misterhouse,2013-05-11 09:35:00,
2013-05-11 02:40:00,66.4,32.0,30.87,ENE,78,0.0,0.0,12,0.00,MI,SKC,0.00,Misterhouse,2013-05-11 09:40:00,
2013-05-11 02:45:00,66.4,32.0,30.84,ENE,78,0.0,0.0,10,0.00,MI,SKC,0.00,Misterhouse,2013-05-11 09:45:00,
2013-05-11 02:50:00,66.2,32.0,30.84,ENE,78,0.0,0.0,10,0.00,MI,SKC,0.00,Misterhouse,2013-05-11 09:50:00,
2013-05-11 02:55:00,66.2,32.0,30.84,ENE,78,0.0,0.0,10,0.00,MI,SKC,0.00,Misterhouse,2013-05-11 09:55:00,
2013-05-11 03:00:00,66.2,32.0,30.84,ENE,78,0.0,0.0,10,0.00,MI,SKC,0.00,Misterhouse,2013-05-11 10:00:00,
2013-05-11 03:05:00,66.6,32.0,30.84,ENE,78,0.0,0.0,10,0.00,MI,SKC,0.00,Misterhouse,2013-05-11 10:05:00,
2013-05-11 03:10:00,66.2,32.0,30.84,ENE,78,0.0,0.0,10,0.00,MI,SKC,0.00,Misterhouse,2013-05-11 10:10:00,
2013-05-11 03:15:00,66.0,32.0,30.84,ENE,78,0.0,0.0,10,0.00,MI,SKC,0.00,Misterhouse,2013-05-11 10:15:00,
2013-05-11 03:20:00,65.8,32.0,30.84,ENE,78,0.0,0.0,10,0.00,MI,SKC,0.00,Misterhouse,2013-05-11 10:20:00,
2013-05-11 03:25:00,65.8,32.0,30.84,ENE,78,0.0,0.0,10,0.00,MI,SKC,0.00,Misterhouse,2013-05-11 10:25:00,
2013-05-11 03:30:00,65.8,32.0,30.84,ENE,78,0.0,0.0,10,0.00,MI,SKC,0.00,Misterhouse,2013-05-11 10:30:00,
2013-05-11 03:35:00,66.0,32.0,30.84,ENE,78,0.0,0.0,10,0.00,MI,SKC,0.00,Misterhouse,2013-05-11 10:35:00,
2013-05-11 03:40:00,66.2,32.0,30.84,ENE,78,0.0,0.0,10,0.00,MI,SKC,0.00,Misterhouse,2013-05-11 10:40:00,
2013-05-11 04:00:00,65.7,32.0,30.84,ENE,78,0.0,0.0,10,0.00,MI,SKC,0.00,Misterhouse,2013-05-11 11:00:00,
2013-05-11 04:05:00,65.7,32.0,30.84,ENE,78,0.0,0.0,10,0.00,MI,SKC,0.00,Misterhouse,2013-05-11 11:05:00,
2013-05-11 04:10:00,65.7,32.0,30.84,ENE,78,0.0,0.0,10,0.00,MI,SKC,0.00,Misterhouse,2013-05-11 11:10:00,
2013-05-11 04:20:00,65.5,32.0,30.84,ENE,78,0.0,0.0,10,0.00,MI,SKC,0.00,Misterhouse,2013-05-11 11:20:00,
2013-05-11 04:25:00,65.7,32.0,30.84,ENE,78,0.0,0.0,10,0.00,MI,SKC,0.00,Misterhouse,2013-05-11 11:25:00,
2013-05-11 04:40:00,66.2,32.0,30.84,ENE,78,0.0,0.0,10,0.00,MI,SKC,0.00,Misterhouse,2013-05-11 11:40:00,
2013-05-11 04:46:00,66.2,32.0,30.84,ENE,78,0.0,0.0,10,0.00,MI,SKC,0.00,Misterhouse,2013-05-11 11:46:00,
2013-05-11 04:50:00,66.0,32.0,30.84,ENE,78,0.0,0.0,10,0.00,MI,SKC,0.00,Misterhouse,2013-05-11 11:50:00,
2013-05-11 04:51:00,65.7,32.0,30.84,ENE,78,0.0,0.0,10,0.00,MI,SKC,0.00,Misterhouse,2013-05-11 11:51:00,
2013-05-11 04:56:00,65.7,32.0,30.84,ENE,78,0.0,0.0,10,0.00,MI,SKC,0.00,Misterhouse,2013-05-11 11:56:00,
2013-05-11 05:16:00,65.5,32.0,30.84,ENE,78,0.0,0.0,10,0.00,MI,SKC,0.00,Misterhouse,2013-05-11 12:16:00,
2013-05-11 05:31:00,66.0,32.0,30.84,ENE,78,0.0,0.0,10,0.00,MI,SKC,0.00,Misterhouse,2013-05-11 12:31:00,
2013-05-11 05:36:00,66.0,32.0,30.84,ENE,78,0.0,0.0,10,0.00,MI,SKC,0.00,Misterhouse,2013-05-11 12:36:00,
2013-05-11 05:46:00,66.0,32.0,30.84,ENE,78,0.0,0.0,10,0.00,MI,SKC,0.00,Misterhouse,2013-05-11 12:46:00,
2013-05-11 05:56:00,66.0,32.0,30.87,ENE,78,0.0,0.0,10,0.00,MI,SKC,0.00,Misterhouse,2013-05-11 12:56:00,
2013-05-11 06:06:00,66.6,32.0,30.87,ENE,78,0.0,0.0,10,0.00,MI,SKC,0.00,Misterhouse,2013-05-11 13:06:00,
2013-05-11 06:16:00,67.1,32.0,30.87,ENE,78,0.0,0.0,10,0.00,MI,SKC,0.00,Misterhouse,2013-05-11 13:16:00,
2013-05-11 06:21:00,67.1,32.0,30.87,ENE,78,0.0,0.0,10,0.00,MI,SKC,0.00,Misterhouse,2013-05-11 13:21:00,
2013-05-11 06:26:00,67.6,32.0,30.87,ENE,78,0.0,0.0,10,0.00,MI,SKC,0.00,Misterhouse,2013-05-11 13:26:00,
2013-05-11 06:31:00,67.6,32.0,30.87,ENE,78,0.0,0.0,12,0.00,MI,SKC,0.00,Misterhouse,2013-05-11 13:31:00,
2013-05-11 06:36:00,68.0,32.0,30.87,East,79,0.0,0.0,10,0.00,MI,SKC,0.00,Misterhouse,2013-05-11 13:36:00,
2013-05-11 06:41:00,67.5,32.0,30.87,East,79,0.0,0.0,10,0.00,MI,SKC,0.00,Misterhouse,2013-05-11 13:41:00,
2013-05-11 06:46:00,67.1,32.0,30.87,East,79,0.0,0.0,12,0.00,MI,SKC,0.00,Misterhouse,2013-05-11 13:46:00,
2013-05-11 06:51:00,67.5,32.0,30.87,East,79,0.0,0.0,12,0.00,MI,SKC,0.00,Misterhouse,2013-05-11 13:51:00,
2013-05-11 06:56:00,67.3,32.0,30.87,East,79,0.0,0.0,12,0.00,MI,SKC,0.00,Misterhouse,2013-05-11 13:56:00,
2013-05-11 07:01:00,66.9,32.0,30.87,East,79,0.0,0.0,12,0.00,MI,SKC,0.00,Misterhouse,2013-05-11 14:01:00,
2013-05-11 07:06:00,66.4,32.0,30.87,East,79,0.0,0.0,12,0.00,MI,SKC,0.00,Misterhouse,2013-05-11 14:06:00,
2013-05-11 07:11:00,66.0,32.0,30.87,East,79,0.0,0.0,13,0.00,MI,SKC,0.00,Misterhouse,2013-05-11 14:11:00,
2013-05-11 07:16:00,66.4,32.0,30.87,East,80,0.0,0.0,12,0.00,MI,SKC,0.00,Misterhouse,2013-05-11 14:16:00,
2013-05-11 07:21:00,67.3,32.0,30.87,East,80,0.0,0.0,12,0.00,MI,SKC,0.00,Misterhouse,2013-05-11 14:21:00,
2013-05-11 07:26:00,68.5,32.0,30.87,East,80,0.0,0.0,12,0.00,MI,SKC,0.00,Misterhouse,2013-05-11 14:26:00,
2013-05-11 07:31:00,70.0,32.0,30.87,East,80,0.0,0.0,12,0.00,MI,SKC,0.00,Misterhouse,2013-05-11 14:31:00,
2013-05-11 07:36:00,71.6,32.0,30.87,East,80,0.0,0.0,11,0.00,MI,SKC,0.00,Misterhouse,2013-05-11 14:36:00,
2013-05-11 07:41:00,72.3,32.0,30.87,East,80,0.0,0.0,11,0.00,MI,SKC,0.00,Misterhouse,2013-05-11 14:41:00,
2013-05-11 07:46:00,72.5,32.0,30.87,East,80,0.0,0.0,11,0.00,MI,SKC,0.00,Misterhouse,2013-05-11 14:46:00,
2013-05-11 07:51:00,72.5,32.0,30.87,East,80,0.0,0.0,11,0.00,MI,SKC,0.00,Misterhouse,2013-05-11 14:51:00,
2013-05-11 07:56:00,72.5,32.0,30.87,East,80,0.0,0.0,11,0.00,MI,SKC,0.00,Misterhouse,2013-05-11 14:56:00,
2013-05-11 08:01:00,73.2,32.0,30.87,East,80,0.0,0.0,11,0.00,MI,SKC,0.00,Misterhouse,2013-05-11 15:01:00,
2013-05-11 08:06:00,73.8,32.0,30.87,East,80,0.0,0.0,11,0.00,MI,SKC,0.00,Misterhouse,2013-05-11 15:06:00,
2013-05-11 08:11:00,74.1,32.0,30.87,East,79,0.0,0.0,11,0.00,MI,SKC,0.00,Misterhouse,2013-05-11 15:11:00,
2013-05-11 08:16:00,74.7,32.0,30.87,East,79,0.0,0.0,11,0.00,MI,SKC,0.00,Misterhouse,2013-05-11 15:16:00,
2013-05-11 08:21:00,74.7,32.0,30.87,NNE,25,0.0,0.0,11,0.00,MI,SKC,0.00,Misterhouse,2013-05-11 15:21:00,
2013-05-11 08:26:00,75.0,32.0,30.87,NNE,22,2.0,0.0,11,0.00,MI,SKC,0.00,Misterhouse,2013-05-11 15:26:00,
2013-05-11 08:31:00,75.2,32.0,30.90,NNE,22,0.0,0.0,10,0.00,MI,SKC,0.00,Misterhouse,2013-05-11 15:31:00,
2013-05-11 08:36:00,75.4,32.0,30.90,NW,314,3.0,3.0,10,0.00,MI,SKC,0.00,Misterhouse,2013-05-11 15:36:00,
2013-05-11 08:41:00,75.6,32.0,30.90,NNW,330,0.0,0.0,10,0.00,MI,SKC,0.00,Misterhouse,2013-05-11 15:41:00,
2013-05-11 08:46:00,75.9,32.0,30.90,NNW,336,2.0,0.0,10,0.00,MI,SKC,0.00,Misterhouse,2013-05-11 15:46:00,
2013-05-11 08:51:00,76.5,32.0,30.90,NNW,336,0.0,0.0,10,0.00,MI,SKC,0.00,Misterhouse,2013-05-11 15:51:00,
2013-05-11 08:56:00,76.6,32.0,30.90,North,357,4.0,5.0,10,0.00,MI,SKC,0.00,Misterhouse,2013-05-11 15:56:00,
2013-05-11 09:01:00,76.8,32.0,30.90,North,357,4.0,4.0,10,0.00,MI,SKC,0.00,Misterhouse,2013-05-11 16:01:00,
2013-05-11 09:06:00,77.0,32.0,30.90,NNW,336,3.0,3.0,10,0.00,MI,SKC,0.00,Misterhouse,2013-05-11 16:06:00,
2013-05-11 09:11:00,77.2,32.0,30.90,NNE,28,0.0,3.0,10,0.00,MI,SKC,0.00,Misterhouse,2013-05-11 16:11:00,
2013-05-11 09:16:00,77.2,32.0,30.90,NW,316,2.0,4.0,10,0.00,MI,SKC,0.00,Misterhouse,2013-05-11 16:16:00,
2013-05-11 09:21:00,77.0,32.0,30.90,NW,304,4.0,5.0,10,0.00,MI,SKC,0.00,Misterhouse,2013-05-11 16:21:00,
2013-05-11 09:26:00,77.4,32.0,30.90,NW,325,4.0,5.0,10,0.00,MI,SKC,0.00,Misterhouse,2013-05-11 16:26:00,
2013-05-11 09:31:00,77.5,32.0,30.90,NNW,341,3.0,6.0,10,0.00,MI,SKC,0.00,Misterhouse,2013-05-11 16:31:00,
2013-05-11 09:36:00,77.9,32.0,30.90,NNW,333,3.0,6.0,10,0.00,MI,SKC,0.00,Misterhouse,2013-05-11 16:36:00,
2013-05-11 09:41:00,78.4,32.0,30.90,WNW,299,4.0,6.0,10,0.00,MI,SKC,0.00,Misterhouse,2013-05-11 16:41:00,
2013-05-11 09:46:00,79.0,32.0,30.90,East,92,3.0,4.0,10,0.00,MI,SKC,0.00,Misterhouse,2013-05-11 16:46:00,
2013-05-11 09:51:00,79.0,32.0,30.90,NW,324,0.0,4.0,10,0.00,MI,SKC,0.00,Misterhouse,2013-05-11 16:51:00,
2013-05-11 09:56:00,79.3,32.0,30.90,NW,311,2.0,0.0,10,0.00,MI,SKC,0.00,Misterhouse,2013-05-11 16:56:00,
2013-05-11 10:01:00,79.7,32.0,30.90,NW,323,5.0,8.0,10,0.00,MI,SKC,0.00,Misterhouse,2013-05-11 17:01:00,
2013-05-11 10:06:00,79.5,32.0,30.90,NW,324,4.0,5.0,10,0.00,MI,SKC,0.00,Misterhouse,2013-05-11 17:06:00,
2013-05-11 10:11:00,79.5,32.0,30.90,NW,320,5.0,5.0,10,0.00,MI,SKC,0.00,Misterhouse,2013-05-11 17:11:00,
2013-05-11 10:16:00,79.5,32.0,30.90,WNW,293,4.0,6.0,10,0.00,MI,SKC,0.00,Misterhouse,2013-05-11 17:16:00,
2013-05-11 10:21:00,79.7,32.0,30.90,NW,304,4.0,6.0,10,0.00,MI,SKC,0.00,Misterhouse,2013-05-11 17:21:00,
2013-05-11 10:26:00,79.7,32.0,30.90,NW,321,4.0,5.0,10,0.00,MI,SKC,0.00,Misterhouse,2013-05-11 17:26:00,
2013-05-11 10:31:00,80.4,32.0,30.90,NW,314,5.0,5.0,10,0.00,MI,SKC,0.00,Misterhouse,2013-05-11 17:31:00,
2013-05-11 10:36:00,80.6,32.0,30.90,NNW,327,6.0,6.0,9,0.00,MI,SKC,0.00,Misterhouse,2013-05-11 17:36:00,
2013-05-11 10:41:00,80.6,32.0,30.90,NNW,329,4.0,6.0,9,0.00,MI,SKC,0.00,Misterhouse,2013-05-11 17:41:00,
2013-05-11 10:46:00,80.8,32.0,30.90,NNE,18,4.0,0.0,9,0.00,MI,SKC,0.00,Misterhouse,2013-05-11 17:46:00,
2013-05-11 10:51:00,81.0,32.0,30.90,North,9,4.0,5.0,9,0.00,MI,SKC,0.00,Misterhouse,2013-05-11 17:51:00,
2013-05-11 10:56:00,81.1,32.0,30.90,NNW,335,5.0,0.0,9,0.00,MI,SKC,0.00,Misterhouse,2013-05-11 17:56:00,
2013-05-11 11:01:00,81.5,32.0,30.90,NNW,336,6.0,8.0,9,0.00,MI,SKC,0.00,Misterhouse,2013-05-11 18:01:00,
2013-05-11 11:06:00,82.2,32.0,30.90,NNW,331,0.0,0.0,9,0.00,MI,SKC,0.00,Misterhouse,2013-05-11 18:06:00,
2013-05-11 11:11:00,82.9,32.0,30.90,NW,320,6.0,10.0,9,0.00,MI,SKC,0.00,Misterhouse,2013-05-11 18:11:00,
2013-05-11 11:16:00,83.1,32.0,30.90,NNW,328,5.0,8.0,9,0.00,MI,SKC,0.00,Misterhouse,2013-05-11 18:16:00,
2013-05-11 11:21:00,82.9,32.0,30.90,NW,311,6.0,10.0,9,0.00,MI,SKC,0.00,Misterhouse,2013-05-11 18:21:00,
2013-05-11 11:26:00,83.3,32.0,30.90,NNW,331,4.0,4.0,9,0.00,MI,SKC,0.00,Misterhouse,2013-05-11 18:26:00,
2013-05-11 11:31:00,83.7,32.0,30.90,NW,323,4.0,6.0,9,0.00,MI,SKC,0.00,Misterhouse,2013-05-11 18:31:00,
2013-05-11 11:36:00,84.4,32.0,30.90,NE,49,4.0,4.0,8,0.00,MI,SKC,0.00,Misterhouse,2013-05-11 18:36:00,
2013-05-11 11:41:00,84.9,32.0,30.90,WNW,297,7.0,7.0,8,0.00,MI,SKC,0.00,Misterhouse,2013-05-11 18:41:00,
2013-05-11 11:46:00,84.2,32.0,30.90,NW,316,6.0,6.0,8,0.00,MI,SKC,0.00,Misterhouse,2013-05-11 18:46:00,
2013-05-11 11:51:00,84.6,32.0,30.90,East,90,3.0,7.0,8,0.00,MI,SKC,0.00,Misterhouse,2013-05-11 18:51:00,
2013-05-11 11:56:00,85.3,32.0,30.90,NNW,328,8.0,8.0,8,0.00,MI,SKC,0.00,Misterhouse,2013-05-11 18:56:00,
2013-05-11 12:01:00,85.5,32.0,30.90,NW,305,5.0,10.0,8,0.00,MI,SKC,0.00,Misterhouse,2013-05-11 19:01:00,
2013-05-11 12:06:00,85.1,32.0,30.90,West,277,2.0,4.0,8,0.00,MI,SKC,0.00,Misterhouse,2013-05-11 19:06:00,
2013-05-11 12:11:00,85.8,32.0,30.90,East,79,3.0,5.0,8,0.00,MI,SKC,0.00,Misterhouse,2013-05-11 19:11:00,
2013-05-11 12:16:00,85.8,32.0,30.90,North,357,0.0,0.0,8,0.00,MI,SKC,0.00,Misterhouse,2013-05-11 19:16:00,
2013-05-11 12:21:00,85.6,32.0,30.90,NNW,328,4.0,4.0,8,0.00,MI,SKC,0.00,Misterhouse,2013-05-11 19:21:00,
2013-05-11 12:26:00,86.5,32.0,30.90,WNW,294,2.0,9.0,8,0.00,MI,SKC,0.00,Misterhouse,2013-05-11 19:26:00,
2013-05-11 12:31:00,87.1,32.0,30.90,South,183,6.0,6.0,8,0.00,MI,SKC,0.00,Misterhouse,2013-05-11 19:31:00,
2013-05-11 12:36:00,87.3,32.0,30.90,ENE,72,0.0,3.0,8,0.00,MI,SKC,0.00,Misterhouse,2013-05-11 19:36:00,
2013-05-11 12:41:00,86.7,32.0,30.90,NNW,348,8.0,8.0,8,0.00,MI,SKC,0.00,Misterhouse,2013-05-11 19:41:00,
2013-05-11 12:46:00,86.4,32.0,30.90,NW,321,6.0,9.0,8,0.00,MI,SKC,0.00,Misterhouse,2013-05-11 19:46:00,
2013-05-11 12:51:00,86.7,32.0,30.90,NW,322,6.0,6.0,8,0.00,MI,SKC,0.00,Misterhouse,2013-05-11 19:51:00,
2013-05-11 12:56:00,87.3,32.0,30.90,NW,314,8.0,10.0,8,0.00,MI,SKC,0.00,Misterhouse,2013-05-11 19:56:00,
2013-05-11 13:01:00,87.8,32.0,30.90,SSE,159,4.0,6.0,8,0.00,MI,SKC,0.00,Misterhouse,2013-05-11 20:01:00,
2013-05-11 13:11:00,87.3,32.0,30.90,NW,318,9.0,9.0,8,0.00,MI,SKC,0.00,Misterhouse,2013-05-11 20:11:00,
2013-05-11 13:16:00,87.6,32.0,30.90,NNW,338,5.0,6.0,8,0.00,MI,SKC,0.00,Misterhouse,2013-05-11 20:16:00,
2013-05-11 13:21:00,87.8,32.0,30.90,NNW,344,4.0,5.0,8,0.00,MI,SKC,0.00,Misterhouse,2013-05-11 20:21:00,
2013-05-11 13:26:00,87.6,32.0,30.90,NW,308,4.0,4.0,8,0.00,MI,SKC,0.00,Misterhouse,2013-05-11 20:26:00,
2013-05-11 13:31:00,88.2,32.0,30.90,WNW,293,5.0,8.0,8,0.00,MI,SKC,0.00,Misterhouse,2013-05-11 20:31:00,
2013-05-11 13:36:00,88.7,32.0,30.90,SSE,149,5.0,5.0,8,0.00,MI,SKC,0.00,Misterhouse,2013-05-11 20:36:00,
2013-05-11 13:41:00,88.9,32.0,30.87,WNW,283,8.0,8.0,8,0.00,MI,SKC,0.00,Misterhouse,2013-05-11 20:41:00,
2013-05-11 13:46:00,88.5,32.0,30.87,NNW,337,4.0,4.0,8,0.00,MI,SKC,0.00,Misterhouse,2013-05-11 20:46:00,
2013-05-11 13:51:00,88.3,32.0,30.87,South,191,3.0,5.0,8,0.00,MI,SKC,0.00,Misterhouse,2013-05-11 20:51:00,
2013-05-11 13:56:00,88.5,32.0,30.87,NNW,335,8.0,8.0,8,0.00,MI,SKC,0.00,Misterhouse,2013-05-11 20:56:00,
2013-05-11 14:01:00,88.9,32.0,30.87,NW,324,5.0,6.0,8,0.00,MI,SKC,0.00,Misterhouse,2013-05-11 21:01:00,
2013-05-11 14:11:00,89.2,32.0,30.87,NW,325,4.0,8.0,8,0.00,MI,SKC,0.00,Misterhouse,2013-05-11 21:11:00,
2013-05-11 14:16:00,88.3,32.0,30.87,NW,306,5.0,5.0,8,0.00,MI,SKC,0.00,Misterhouse,2013-05-11 21:16:00,
2013-05-11 14:21:00,89.1,32.0,30.87,NW,320,8.0,11.0,8,0.00,MI,SKC,0.00,Misterhouse,2013-05-11 21:21:00,
2013-05-11 14:26:00,90.1,32.0,30.87,NW,305,4.0,5.0,7,0.00,MI,SKC,0.00,Misterhouse,2013-05-11 21:26:00,
2013-05-11 14:31:00,90.7,32.0,30.87,WNW,292,4.0,4.0,7,0.00,MI,SKC,0.00,Misterhouse,2013-05-11 21:31:00,
2013-05-11 14:41:00,89.6,32.0,30.87,SE,143,4.0,5.0,7,0.00,MI,SKC,0.00,Misterhouse,2013-05-11 21:41:00,
2013-05-11 14:46:00,90.5,32.0,30.87,North,9,4.0,6.0,7,0.00,MI,SKC,0.00,Misterhouse,2013-05-11 21:46:00,
2013-05-11 14:51:00,90.1,32.0,30.87,NNW,339,8.0,8.0,7,0.00,MI,SKC,0.00,Misterhouse,2013-05-11 21:51:00,
2013-05-11 14:56:00,88.0,32.0,30.87,NNW,338,8.0,8.0,8,0.00,MI,SKC,0.00,Misterhouse,2013-05-11 21:56:00,
2013-05-11 15:01:00,88.2,32.0,30.87,North,11,5.0,6.0,8,0.00,MI,SKC,0.00,Misterhouse,2013-05-11 22:01:00,
2013-05-11 15:11:00,90.3,32.0,30.84,NW,312,3.0,6.0,7,0.00,PR,BKN,0.00,Misterhouse,2013-05-11 22:11:00,
2013-05-11 15:16:00,90.3,32.0,30.84,North,353,7.0,8.0,7,0.00,PR,BKN,0.00,Misterhouse,2013-05-11 22:16:00,
2013-05-11 15:21:00,90.3,32.0,30.84,WNW,303,6.0,7.0,7,0.00,PR,BKN,0.00,Misterhouse,2013-05-11 22:21:00,
2013-05-11 15:26:00,89.4,32.0,30.84,West,267,4.0,4.0,8,0.00,PR,BKN,0.00,Misterhouse,2013-05-11 22:26:00,
2013-05-11 15:31:00,89.6,32.0,30.84,West,273,8.0,10.0,7,0.00,PR,BKN,0.00,Misterhouse,2013-05-11 22:31:00,
2013-05-11 15:36:00,90.3,32.0,30.84,West,266,6.0,6.0,7,0.00,PR,BKN,0.00,Misterhouse,2013-05-11 22:36:00,
2013-05-11 15:41:00,90.7,32.0,30.84,WNW,296,5.0,6.0,7,0.00,PR,BKN,0.00,Misterhouse,2013-05-11 22:41:00,
2013-05-11 15:46:00,90.3,32.0,30.84,WNW,299,6.0,6.0,7,0.00,PR,BKN,0.00,Misterhouse,2013-05-11 22:46:00,
2013-05-11 15:51:00,89.2,32.0,30.84,WNW,303,5.0,6.0,8,0.00,PR,BKN,0.00,Misterhouse,2013-05-11 22:51:00,
2013-05-11 15:56:00,90.1,32.0,30.84,NW,309,7.0,7.0,7,0.00,PR,BKN,0.00,Misterhouse,2013-05-11 22:56:00,
2013-05-11 16:01:00,90.7,32.0,30.84,SE,138,4.0,4.0,7,0.00,PR,BKN,0.00,Misterhouse,2013-05-11 23:01:00,
2013-05-11 16:11:00,89.4,32.0,30.84,SW,217,2.0,4.0,8,0.00,PR,BKN,0.00,Misterhouse,2013-05-11 23:11:00,
2013-05-11 16:16:00,88.5,32.0,30.84,SW,229,3.0,3.0,8,0.00,PR,BKN,0.00,Misterhouse,2013-05-11 23:16:00,
2013-05-11 16:21:00,89.2,32.0,30.84,WNW,289,3.0,3.0,8,0.00,PR,BKN,0.00,Misterhouse,2013-05-11 23:21:00,
2013-05-11 16:26:00,90.9,32.0,30.84,West,274,3.0,5.0,7,0.00,PR,BKN,0.00,Misterhouse,2013-05-11 23:26:00,
2013-05-11 16:31:00,90.9,32.0,30.84,WNW,293,4.0,6.0,7,0.00,PR,BKN,0.00,Misterhouse,2013-05-11 23:31:00,
2013-05-11 16:36:00,90.7,32.0,30.84,SW,228,4.0,6.0,7,0.00,PR,BKN,0.00,Misterhouse,2013-05-11 23:36:00,
2013-05-11 16:41:00,90.9,32.0,30.84,East,91,4.0,4.0,7,0.00,PR,BKN,0.00,Misterhouse,2013-05-11 23:41:00,
2013-05-11 16:46:00,91.4,32.0,30.84,SSE,159,3.0,5.0,7,0.00,PR,BKN,0.00,Misterhouse,2013-05-11 23:46:00,
2013-05-11 16:51:00,91.0,32.0,30.84,NW,322,0.0,0.0,7,0.00,PR,BKN,0.00,Misterhouse,2013-05-11 23:51:00,
2013-05-11 16:56:00,89.6,32.0,30.84,West,279,3.0,3.0,7,0.00,PR,BKN,0.00,Misterhouse,2013-05-11 23:56:00,
2013-05-11 17:01:00,89.4,32.0,30.84,WNW,300,5.0,8.0,8,0.00,PR,BKN,0.00,Misterhouse,2013-05-12 00:01:00,
2013-05-11 17:11:00,90.3,32.0,30.84,NNW,329,7.0,7.0,7,0.00,PR,BKN,0.00,Misterhouse,2013-05-12 00:11:00,
2013-05-11 17:16:00,90.1,32.0,30.84,NNW,334,4.0,8.0,7,0.00,PR,BKN,0.00,Misterhouse,2013-05-12 00:16:00,
2013-05-11 17:21:00,89.6,32.0,30.84,NW,314,4.0,6.0,7,0.00,PR,BKN,0.00,Misterhouse,2013-05-12 00:21:00,
2013-05-11 17:26:00,89.8,32.0,30.84,NW,321,0.0,4.0,7,0.00,PR,BKN,0.00,Misterhouse,2013-05-12 00:26:00,
2013-05-11 17:31:00,90.1,32.0,30.84,WNW,284,4.0,4.0,7,0.00,PR,BKN,0.00,Misterhouse,2013-05-12 00:31:00,
2013-05-11 17:36:00,89.6,32.0,30.84,East,90,2.0,4.0,7,0.00,PR,BKN,0.00,Misterhouse,2013-05-12 00:36:00,
2013-05-11 17:41:00,89.6,32.0,30.84,North,357,4.0,4.0,7,0.00,PR,BKN,0.00,Misterhouse,2013-05-12 00:41:00,
2013-05-11 17:46:00,89.1,32.0,30.84,WNW,295,5.0,5.0,8,0.00,PR,BKN,0.00,Misterhouse,2013-05-12 00:46:00,
2013-05-11 17:51:00,88.2,32.0,30.84,WNW,293,7.0,8.0,8,0.00,PR,BKN,0.00,Misterhouse,2013-05-12 00:51:00,
2013-05-11 17:56:00,87.4,32.0,30.84,West,276,5.0,5.0,8,0.00,PR,BKN,0.00,Misterhouse,2013-05-12 00:56:00,
2013-05-11 18:01:00,87.4,32.0,30.84,WNW,282,4.0,5.0,8,0.00,PR,BKN,0.00,Misterhouse,2013-05-12 01:01:00,
2013-05-11 18:11:00,87.8,32.0,30.84,NW,318,0.0,3.0,8,0.00,PR,BKN,0.00,Misterhouse,2013-05-12 01:11:00,
2013-05-11 18:16:00,88.7,32.0,30.84,NW,318,0.0,0.0,8,0.00,PR,BKN,0.00,Misterhouse,2013-05-12 01:16:00,
2013-05-11 18:21:00,89.1,32.0,30.84,NW,306,0.0,0.0,8,0.00,PR,BKN,0.00,Misterhouse,2013-05-12 01:21:00,
2013-05-11 18:26:00,88.9,32.0,30.84,North,10,0.0,0.0,8,0.00,PR,BKN,0.00,Misterhouse,2013-05-12 01:26:00,
2013-05-11 18:31:00,84.9,32.0,30.84,WNW,291,4.0,8.0,8,0.00,PR,BKN,0.00,Misterhouse,2013-05-12 01:31:00,
2013-05-11 18:36:00,82.8,32.0,30.84,West,260,6.0,8.0,9,0.00,PR,BKN,0.00,Misterhouse,2013-05-12 01:36:00,
2013-05-11 18:41:00,81.9,32.0,30.84,SSW,202,6.0,6.0,9,0.00,PR,BKN,0.00,Misterhouse,2013-05-12 01:41:00,
2013-05-11 18:46:00,81.5,32.0,30.84,South,188,7.0,7.0,9,0.00,PR,BKN,0.00,Misterhouse,2013-05-12 01:46:00,
2013-05-11 18:51:00,81.0,32.0,30.84,SSW,195,9.0,9.0,9,0.00,PR,BKN,0.00,Misterhouse,2013-05-12 01:51:00,
2013-05-11 18:56:00,80.6,32.0,30.84,SSW,192,10.0,11.0,9,0.00,PR,BKN,0.00,Misterhouse,2013-05-12 01:56:00,
2013-05-11 19:01:00,80.1,32.0,30.84,South,190,8.0,11.0,10,0.00,PR,BKN,0.00,Misterhouse,2013-05-12 02:01:00,
2013-05-11 19:06:00,80.1,32.0,30.84,SW,219,10.0,10.0,10,0.00,PR,BKN,0.00,Misterhouse,2013-05-12 02:06:00,
2013-05-11 19:11:00,79.5,32.0,30.84,SW,224,8.0,11.0,10,0.00,PR,BKN,0.00,Misterhouse,2013-05-12 02:11:00,
2013-05-11 19:16:00,79.3,32.0,30.84,SW,224,8.0,9.0,10,0.00,PR,BKN,0.00,Misterhouse,2013-05-12 02:16:00,
2013-05-11 19:21:00,79.0,32.0,30.84,SSW,211,9.0,11.0,10,0.00,PR,BKN,0.00,Misterhouse,2013-05-12 02:21:00,
2013-05-11 19:31:00,78.1,32.0,30.84,SSW,192,9.0,11.0,10,0.00,PR,BKN,0.00,Misterhouse,2013-05-12 02:31:00,
2013-05-11 19:36:00,77.7,32.0,30.84,SW,229,9.0,9.0,10,0.00,PR,BKN,0.00,Misterhouse,2013-05-12 02:36:00,
2013-05-11 19:41:00,77.5,32.0,30.84,SSE,167,10.0,10.0,10,0.00,PR,BKN,0.00,Misterhouse,2013-05-12 02:41:00,
2013-05-11 19:46:00,77.4,32.0,30.84,SSE,153,8.0,8.0,10,0.00,PR,BKN,0.00,Misterhouse,2013-05-12 02:46:00,
2013-05-11 19:51:00,77.2,32.0,30.84,SSW,201,8.0,9.0,10,0.00,PR,BKN,0.00,Misterhouse,2013-05-12 02:51:00,
2013-05-11 19:56:00,77.2,32.0,30.84,South,187,8.0,8.0,10,0.00,PR,BKN,0.00,Misterhouse,2013-05-12 02:56:00,
2013-05-11 20:00:00,76.1,32.0,30.87,South,179,6.0,6.0,10,0.00,PR,BKN,0.00,Misterhouse,2013-05-12 03:00:00,
2013-05-11 20:01:00,77.2,32.0,30.84,SSW,192,9.0,10.0,10,0.00,PR,BKN,0.00,Misterhouse,2013-05-12 03:01:00,
2013-05-11 20:05:00,76.6,32.0,30.87,SSW,195,6.0,6.0,10,0.00,PR,BKN,0.00,Misterhouse,2013-05-12 03:05:00,
2013-05-11 20:06:00,77.0,32.0,30.84,SSE,163,7.0,8.0,10,0.00,PR,BKN,0.00,Misterhouse,2013-05-12 03:06:00,
2013-05-11 20:10:00,76.5,32.0,30.87,South,186,4.0,4.0,10,0.00,PR,BKN,0.00,Misterhouse,2013-05-12 03:10:00,
2013-05-11 20:11:00,76.8,32.0,30.84,South,174,7.0,9.0,10,0.00,PR,BKN,0.00,Misterhouse,2013-05-12 03:11:00,
2013-05-11 20:15:00,75.7,32.0,30.87,WNW,291,4.0,4.0,8,0.00,PR,BKN,0.00,Misterhouse,2013-05-12 03:15:00,
2013-05-11 20:20:00,74.3,32.0,30.87,SSW,205,4.0,5.0,8,0.00,PR,BKN,0.00,Misterhouse,2013-05-12 03:20:00,
2013-05-11 20:21:00,76.8,32.0,30.84,SSW,199,9.0,11.0,10,0.00,PR,BKN,0.00,Misterhouse,2013-05-12 03:21:00,
2013-05-11 20:25:00,75.2,32.0,30.87,SSW,206,4.0,6.0,8,0.00,PR,BKN,0.00,Misterhouse,2013-05-12 03:25:00,
2013-05-11 20:26:00,77.0,32.0,30.84,SW,214,9.0,9.0,10,0.00,PR,BKN,0.00,Misterhouse,2013-05-12 03:26:00,
2013-05-11 20:30:00,75.9,32.0,30.87,SSW,210,6.0,6.0,10,0.00,PR,BKN,0.00,Misterhouse,2013-05-12 03:30:00,
2013-05-11 20:35:00,76.1,32.0,30.87,WSW,249,3.0,4.0,10,0.00,PR,BKN,0.00,Misterhouse,2013-05-12 03:35:00,
2013-05-11 20:36:00,77.0,32.0,30.84,SSW,204,6.0,8.0,10,0.00,PR,BKN,0.00,Misterhouse,2013-05-12 03:36:00,
2013-05-11 20:40:00,75.9,32.0,30.87,SW,230,4.0,4.0,10,0.00,PR,BKN,0.00,Misterhouse,2013-05-12 03:40:00,
2013-05-11 20:41:00,76.5,32.0,30.87,South,178,6.0,8.0,10,0.00,PR,BKN,0.00,Misterhouse,2013-05-12 03:41:00,
2013-05-11 20:45:00,75.7,32.0,30.87,SW,218,6.0,6.0,10,0.00,PR,BKN,0.00,Misterhouse,2013-05-12 03:45:00,
2013-05-11 20:46:00,76.5,32.0,30.87,SSW,204,8.0,8.0,10,0.00,PR,BKN,0.00,Misterhouse,2013-05-12 03:46:00,
2013-05-11 20:50:00,75.6,32.0,30.87,WSW,256,3.0,4.0,10,0.00,PR,BKN,0.00,Misterhouse,2013-05-12 03:50:00,
2013-05-11 20:55:00,75.4,32.0,30.87,SSW,200,4.0,4.0,10,0.00,PR,BKN,0.00,Misterhouse,2013-05-12 03:55:00,
2013-05-11 20:56:00,76.3,32.0,30.87,SSW,194,5.0,5.0,10,0.00,PR,BKN,0.00,Misterhouse,2013-05-12 03:56:00,
2013-05-11 21:00:00,75.0,32.0,30.87,SSW,198,2.0,5.0,11,0.00,PR,BKN,0.00,Misterhouse,2013-05-12 04:00:00,
2013-05-11 21:05:00,75.2,32.0,30.87,WSW,241,5.0,5.0,10,0.00,PR,BKN,0.00,Misterhouse,2013-05-12 04:05:00,
2013-05-11 21:10:00,75.0,32.0,30.87,WSW,250,4.0,4.0,11,0.00,PR,BKN,0.00,Misterhouse,2013-05-12 04:10:00,
2013-05-11 21:15:00,75.0,32.0,30.87,SSW,201,4.0,4.0,11,0.00,PR,BKN,0.00,Misterhouse,2013-05-12 04:15:00,
2013-05-11 21:20:00,74.5,32.0,30.87,SW,220,0.0,0.0,11,0.00,PR,BKN,0.00,Misterhouse,2013-05-12 04:20:00,
2013-05-11 21:25:00,74.1,32.0,30.87,SSW,208,0.0,3.0,11,0.00,PR,BKN,0.00,Misterhouse,2013-05-12 04:25:00,
2013-05-11 21:30:00,74.1,32.0,30.87,SSW,201,0.0,0.0,11,0.00,PR,BKN,0.00,Misterhouse,2013-05-12 04:30:00,
2013-05-11 21:35:00,74.1,32.0,30.87,SW,218,3.0,3.0,11,0.00,PR,BKN,0.00,Misterhouse,2013-05-12 04:35:00,
2013-05-11 21:40:00,73.9,32.0,30.87,SSW,208,2.0,0.0,11,0.00,PR,BKN,0.00,Misterhouse,2013-05-12 04:40:00,
2013-05-11 21:45:00,73.9,32.0,30.90,SSW,208,4.0,4.0,11,0.00,MI,SKC,0.00,Misterhouse,2013-05-12 04:45:00,
2013-05-11 21:50:00,73.8,32.0,30.90,WSW,244,3.0,3.0,11,0.00,MI,SKC,0.00,Misterhouse,2013-05-12 04:50:00,
2013-05-11 21:55:00,73.9,32.0,30.90,SSW,211,3.0,3.0,11,0.00,MI,SKC,0.00,Misterhouse,2013-05-12 04:55:00,
2013-05-11 22:00:00,74.1,32.0,30.90,WSW,257,3.0,0.0,11,0.00,MI,SKC,0.00,Misterhouse,2013-05-12 05:00:00,
2013-05-11 22:05:00,74.1,32.0,30.90,SSW,202,4.0,4.0,11,0.00,MI,SKC,0.00,Misterhouse,2013-05-12 05:05:00,
2013-05-11 22:10:00,73.9,32.0,30.90,SW,215,4.0,4.0,11,0.00,MI,SKC,0.00,Misterhouse,2013-05-12 05:10:00,
2013-05-11 22:15:00,74.5,32.0,30.90,WSW,244,4.0,4.0,11,0.00,MI,SKC,0.00,Misterhouse,2013-05-12 05:15:00,
2013-05-11 22:20:00,74.3,32.0,30.90,West,265,4.0,4.0,11,0.00,MI,SKC,0.00,Misterhouse,2013-05-12 05:20:00,
2013-05-11 22:25:00,74.5,32.0,30.90,WSW,248,4.0,4.0,11,0.00,MI,SKC,0.00,Misterhouse,2013-05-12 05:25:00,
2013-05-11 22:30:00,74.1,32.0,30.90,WNW,283,4.0,4.0,11,0.00,MI,SKC,0.00,Misterhouse,2013-05-12 05:30:00,
2013-05-11 22:35:00,74.1,32.0,30.90,SSW,213,4.0,4.0,11,0.00,MI,SKC,0.00,Misterhouse,2013-05-12 05:35:00,
2013-05-11 22:40:00,74.1,32.0,30.90,WSW,257,3.0,0.0,11,0.00,MI,SKC,0.00,Misterhouse,2013-05-12 05:40:00,
2013-05-11 22:45:00,73.9,32.0,30.90,SSW,205,2.0,4.0,11,0.00,MI,SKC,0.00,Misterhouse,2013-05-12 05:45:00,
2013-05-11 22:50:00,74.1,32.0,30.90,SSW,202,3.0,4.0,11,0.00,MI,SKC,0.00,Misterhouse,2013-05-12 05:50:00,
2013-05-11 22:55:00,73.9,32.0,30.90,WSW,238,3.0,4.0,11,0.00,MI,SKC,0.00,Misterhouse,2013-05-12 05:55:00,
2013-05-11 23:00:00,73.8,32.0,30.90,SSW,209,4.0,5.0,11,0.00,MI,SKC,0.00,Misterhouse,2013-05-12 06:00:00,
2013-05-11 23:05:00,74.3,32.0,30.90,WSW,239,4.0,4.0,11,0.00,MI,SKC,0.00,Misterhouse,2013-05-12 06:05:00,
2013-05-11 23:10:00,74.7,32.0,30.90,West,276,4.0,6.0,11,0.00,MI,SKC,0.00,Misterhouse,2013-05-12 06:10:00,
2013-05-11 23:15:00,74.5,32.0,30.90,SW,217,3.0,3.0,11,0.00,MI,SKC,0.00,Misterhouse,2013-05-12 06:15:00,
2013-05-11 23:20:00,74.3,32.0,30.90,WSW,257,5.0,5.0,8,0.00,MI,SKC,0.00,Misterhouse,2013-05-12 06:20:00,
2013-05-11 23:25:00,74.3,32.0,30.90,West,259,2.0,4.0,8,0.00,MI,SKC,0.00,Misterhouse,2013-05-12 06:25:00,
2013-05-11 23:30:00,74.1,32.0,30.90,WSW,238,3.0,4.0,8,0.00,MI,SKC,0.00,Misterhouse,2013-05-12 06:30:00,
2013-05-11 23:35:00,74.5,32.0,30.90,WSW,240,7.0,7.0,8,0.00,MI,SKC,0.00,Misterhouse,2013-05-12 06:35:00,
2013-05-11 23:40:00,74.5,32.0,30.90,West,260,6.0,6.0,8,0.00,MI,SKC,0.00,Misterhouse,2013-05-12 06:40:00,
2013-05-11 23:45:00,74.5,32.0,30.90,WSW,246,4.0,7.0,8,0.00,MI,SKC,0.00,Misterhouse,2013-05-12 06:45:00,
2013-05-11 23:50:00,74.5,32.0,30.90,West,270,5.0,6.0,8,0.00,MI,SKC,0.00,Misterhouse,2013-05-12 06:50:00,
2013-05-11 23:55:00,74.5,32.0,30.90,WSW,248,8.0,8.0,8,0.00,MI,SKC,0.00,Misterhouse,2013-05-12 06:55:00,